Location: Glendale
(37.4556°N, 88.6714°W)
Time: 02:38:11
(UTC+00:00)

Cosmos 1603 - Pass Details

Date: 08 December 2019
Orbit: 830 x 860 km, 71.0° (Epoch: 25 January)

Event Time Altitude Azimuth Distance (km) Brightness Sun altitude
Exits shadow 11:37:09 - 337° (NNW) 2,651 5.9 -15.3°
Reaches altitude 10° 11:37:33 10° 337° (NNW) 2,499 5.8 -15.3°
Maximum altitude 11:43:19 86° 250° (WSW) 862 3.7 -14.2°
Drops below altitude 10° 11:49:01 10° 161° (SSE) 2,470 6.7 -13.1°
Sets 11:51:26 0° 161° (SSE) 3,398 7.4 -12.6°
